• In Hungary
  • List of Countries
  • For 7 days
  • Water Temperature
  • Satellite Maps
  • Weather Map
  • News
  • Weather Widgets
  • user-avatar
    Login

    Hourly Weather Tulsa

    Today, 22 June, Friday

    Time Temperature Precipitation Wind Pressure Humidity
    00:00 +23°C° 0 mm 2 mps 739 mmHg 70%
    01:00 +21°C° 0 mm 2 mps 739 mmHg 74%
    02:00 +20°C° 0 mm 2 mps 739 mmHg 77%
    03:00 +19°C° 0 mm 2 mps 739 mmHg 81%
    04:00 +19°C° 0 mm 2 mps 739 mmHg 83%
    05:00 +19°C° 0 mm 2 mps 739 mmHg 85%
    06:00 +19°C° 0 mm 2 mps 739 mmHg 87%
    07:00 +21°C° 0 mm 2 mps 739 mmHg 81%
    08:00 +24°C° 0 mm 3 mps 740 mmHg 75%
    09:00 +25°C° 0 mm 3 mps 740 mmHg 69%
    10:00 +27°C° 0 mm 3 mps 740 mmHg 65%
    11:00 +28°C° 0 mm 3 mps 740 mmHg 60%
    12:00 +30°C° 0 mm 3 mps 740 mmHg 55%
    13:00 +30°C° 0 mm 3 mps 739 mmHg 54%
    14:00 +31°C° 0 mm 2 mps 739 mmHg 52%
    15:00 +31°C° 0 mm 1 mps 738 mmHg 50%
    16:00 +31°C° 0 mm 1 mps 738 mmHg 53%
    17:00 +31°C° 0 mm 2 mps 738 mmHg 57%
    18:00 +31°C° 0 mm 2 mps 737 mmHg 60%
    19:00 +29°C° 0.1 mm 2 mps 737 mmHg 64%
    20:00 +27°C° 0.1 mm 3 mps 736 mmHg 69%
    21:00 +25°C° 0.1 mm 4 mps 736 mmHg 74%
    22:00 +23°C° 1.9 mm 4 mps 736 mmHg 79%
    23:00 +23°C° 1.9 mm 4 mps 736 mmHg 85%

    Tomorrow, 23 June, Saturday

    Time Temperature Precipitation Wind Pressure Humidity
    00:00 +22°C° 1.9 mm 4 mps 737 mmHg 90%
    01:00 +22°C° 8.2 mm 3 mps 736 mmHg 92%
    02:00 +21°C° 8.2 mm 3 mps 736 mmHg 94%
    03:00 +21°C° 8.2 mm 3 mps 736 mmHg 96%
    04:00 +21°C° 2.3 mm 4 mps 736 mmHg 96%
    05:00 +22°C° 2.3 mm 4 mps 735 mmHg 95%
    06:00 +22°C° 2.3 mm 4 mps 735 mmHg 95%
    07:00 +24°C° 1.2 mm 3 mps 735 mmHg 91%
    08:00 +26°C° 1.2 mm 3 mps 736 mmHg 87%
    09:00 +28°C° 1.2 mm 3 mps 736 mmHg 83%
    10:00 +29°C° 2.1 mm 3 mps 736 mmHg 80%
    11:00 +30°C° 2.1 mm 3 mps 736 mmHg 77%
    12:00 +31°C° 2.1 mm 2 mps 736 mmHg 74%
    13:00 +33°C° 0.7 mm 3 mps 736 mmHg 71%
    14:00 +33°C° 0.7 mm 3 mps 736 mmHg 68%
    15:00 +34°C° 0.7 mm 3 mps 735 mmHg 65%
    16:00 +33°C° 2 mm 3 mps 735 mmHg 70%
    17:00 +33°C° 2 mm 3 mps 735 mmHg 74%
    18:00 +31°C° 2 mm 3 mps 735 mmHg 79%
    19:00 +30°C° 0.3 mm 3 mps 735 mmHg 82%
    20:00 +28°C° 0.3 mm 2 mps 735 mmHg 85%
    21:00 +27°C° 0.3 mm 2 mps 736 mmHg 88%
    22:00 +27°C° 0.3 mm 2 mps 736 mmHg 89%
    23:00 +26°C° 0.3 mm 2 mps 737 mmHg 90%

    Day after tomorrow, 24 June, Sunday

    Time Temperature Precipitation Wind Pressure Humidity
    00:00 +26°C° 0.3 mm 2 mps 737 mmHg 91%
    01:00 +26°C° 0 mm 2 mps 737 mmHg 92%
    02:00 +26°C° 0 mm 2 mps 736 mmHg 93%
    03:00 +26°C° 0 mm 2 mps 736 mmHg 94%
    04:00 +26°C° 0.1 mm 3 mps 736 mmHg 94%
    05:00 +26°C° 0.1 mm 4 mps 737 mmHg 94%
    06:00 +26°C° 0.1 mm 4 mps 737 mmHg 94%
    07:00 +27°C° 0 mm 4 mps 737 mmHg 88%
    08:00 +29°C° 0 mm 5 mps 738 mmHg 82%
    09:00 +30°C° 0 mm 5 mps 738 mmHg 76%
    10:00 +32°C° 0 mm 5 mps 738 mmHg 75%
    11:00 +33°C° 0 mm 5 mps 738 mmHg 73%
    12:00 +33°C° 0 mm 6 mps 739 mmHg 71%
    13:00 +34°C° 0 mm 6 mps 738 mmHg 69%
    14:00 +34°C° 0 mm 6 mps 738 mmHg 66%
    15:00 +35°C° 0 mm 6 mps 738 mmHg 64%
    16:00 +35°C° 0 mm 6 mps 738 mmHg 66%
    17:00 +34°C° 0 mm 5 mps 738 mmHg 68%
    18:00 +34°C° 0 mm 5 mps 738 mmHg 71%
    19:00 +33°C° 0 mm 5 mps 738 mmHg 71%
    20:00 +32°C° 0 mm 6 mps 738 mmHg 72%
    21:00 +30°C° 0 mm 7 mps 738 mmHg 72%
    22:00 +30°C° 0 mm 7 mps 738 mmHg 74%
    23:00 +29°C° 0 mm 7 mps 738 mmHg 75%

    25 June, Monday

    Time Temperature Precipitation Wind Pressure Humidity
    00:00 +29°C° 0 mm 7 mps 738 mmHg 77%
    01:00 +29°C° 0 mm 7 mps 738 mmHg 77%
    02:00 +29°C° 0 mm 7 mps 738 mmHg 77%
    03:00 +28°C° 0 mm 7 mps 738 mmHg 77%
    04:00 +28°C° 0 mm 6 mps 739 mmHg 79%
    05:00 +27°C° 0 mm 6 mps 739 mmHg 82%
    06:00 +27°C° 0 mm 5 mps 740 mmHg 84%
    07:00 +28°C° 0 mm 6 mps 740 mmHg 81%
    08:00 +28°C° 0 mm 8 mps 740 mmHg 78%
    09:00 +29°C° 0 mm 9 mps 740 mmHg 75%
    10:00 +31°C° 0 mm 9 mps 740 mmHg 71%
    11:00 +33°C° 0 mm 9 mps 740 mmHg 67%
    12:00 +34°C° 0 mm 9 mps 740 mmHg 63%
    13:00 +35°C° 0 mm 9 mps 740 mmHg 61%
    14:00 +35°C° 0 mm 8 mps 740 mmHg 58%
    15:00 +37°C° 0 mm 8 mps 740 mmHg 56%
    16:00 +35°C° 0 mm 8 mps 740 mmHg 59%
    17:00 +35°C° 0 mm 7 mps 740 mmHg 62%
    18:00 +34°C° 0 mm 6 mps 740 mmHg 66%
    19:00 +34°C° 0 mm 7 mps 740 mmHg 64%
    20:00 +33°C° 0 mm 8 mps 740 mmHg 62%
    21:00 +32°C° 0 mm 8 mps 740 mmHg 60%
    22:00 +31°C° 1.7 mm 8 mps 740 mmHg 66%
    23:00 +28°C° 1.7 mm 7 mps 740 mmHg 72%

    26 June, Tuesday

    Time Temperature Precipitation Wind Pressure Humidity
    00:00 +27°C° 1.7 mm 6 mps 740 mmHg 79%
    01:00 +27°C° 2.6 mm 6 mps 741 mmHg 82%
    02:00 +26°C° 2.6 mm 5 mps 741 mmHg 84%
    03:00 +26°C° 2.6 mm 5 mps 741 mmHg 87%
    04:00 +26°C° 0 mm 5 mps 741 mmHg 87%
    05:00 +26°C° 0 mm 5 mps 741 mmHg 87%
    06:00 +26°C° 0 mm 5 mps 741 mmHg 87%
    07:00 +28°C° 0 mm 6 mps 742 mmHg 83%
    08:00 +29°C° 0 mm 7 mps 742 mmHg 79%
    09:00 +32°C° 0 mm 7 mps 742 mmHg 75%
    10:00 +33°C° 0 mm 7 mps 742 mmHg 71%
    11:00 +34°C° 0 mm 7 mps 742 mmHg 66%
    12:00 +35°C° 0 mm 7 mps 742 mmHg 62%
    13:00 +36°C° 0 mm 7 mps 741 mmHg 59%
    14:00 +36°C° 0 mm 7 mps 741 mmHg 57%
    15:00 +38°C° 0 mm 7 mps 741 mmHg 54%
    16:00 +36°C° 0 mm 7 mps 740 mmHg 58%
    17:00 +36°C° 0 mm 6 mps 740 mmHg 62%
    18:00 +35°C° 0 mm 5 mps 740 mmHg 66%
    19:00 +34°C° 0 mm 6 mps 739 mmHg 63%
    20:00 +34°C° 0 mm 7 mps 739 mmHg 61%
    21:00 +33°C° 0 mm 8 mps 739 mmHg 59%
    22:00 +32°C° 0 mm 8 mps 739 mmHg 59%
    23:00 +32°C° 0 mm 8 mps 739 mmHg 59%

    27 June, Wednesday

    Time Temperature Precipitation Wind Pressure Humidity
    00:00 +30°C° 0 mm 7 mps 739 mmHg 59%
    01:00 +30°C° 0.3 mm 7 mps 739 mmHg 62%
    02:00 +29°C° 0.3 mm 6 mps 739 mmHg 65%
    03:00 +28°C° 0.3 mm 6 mps 740 mmHg 68%
    04:00 +27°C° 0.6 mm 6 mps 740 mmHg 72%
    05:00 +27°C° 0.6 mm 6 mps 740 mmHg 77%
    06:00 +26°C° 0.6 mm 6 mps 740 mmHg 81%
    07:00 +27°C° 0.2 mm 6 mps 740 mmHg 79%
    08:00 +29°C° 0.2 mm 6 mps 741 mmHg 78%
    09:00 +30°C° 0.2 mm 6 mps 741 mmHg 76%
    10:00 +32°C° 0 mm 6 mps 741 mmHg 70%
    11:00 +34°C° 0 mm 6 mps 741 mmHg 65%
    12:00 +36°C° 0 mm 6 mps 741 mmHg 59%
    13:00 +38°C° 0 mm 6 mps 740 mmHg 57%
    14:00 +37°C° 0 mm 5 mps 740 mmHg 54%
    15:00 +39°C° 0 mm 5 mps 740 mmHg 52%
    16:00 +39°C° 0 mm 5 mps 740 mmHg 55%
    17:00 +37°C° 0 mm 4 mps 739 mmHg 58%
    18:00 +36°C° 0 mm 3 mps 739 mmHg 62%
    19:00 +35°C° 0 mm 4 mps 740 mmHg 62%
    20:00 +34°C° 0 mm 4 mps 740 mmHg 62%
    21:00 +32°C° 0 mm 4 mps 740 mmHg 62%
    22:00 +30°C° 0 mm 5 mps 740 mmHg 62%
    23:00 +30°C° 0 mm 5 mps 740 mmHg 61%
    Show more